Tracking 18957 objects as of 24-Jan-2018
HD Live streaming from Space Station
objects crossing your sky now

FENGYUN 1C DEB

Track FENGYUN 1C DEB now!
10-day predictions


NORAD ID: 30243
Int'l Code: 1999-025XC
Perigee: 857.7 km
Apogee: 876.6 km
Inclination: 99.0 °
Period: 102.1 minutes
Semi major axis: 7238 km
RCS: 0.035 m2 (small)
Launch date: May 10, 1999
Source: People's Republic of China (PRC)
Launch site: Taiyaun Space Center, China (TSC)

Note: This is SATELLITE DEBRIS
aabbcc
Your satellite tracking list
Your tracking list is empty




NASA's NSSDC Master Catalog

Two Line Element Set (TLE):
1 30243U 99025XC  18022.77881000 +.00000048 +00000-0 +52526-4 0  9997
2 30243 098.9556 053.5668 0013064 354.0773 058.4050 14.09808735566703
Source of the keplerian elements: AFSPC